Погода в Кубинке

Россия / Московская область     55°34′32″N   36°41′42″E
темп.,
°C
ветер,
м/с
пор.,
м/с
влажн.,
%
обл.,
%
осадки,
мм/ч
давл.,
гПа
погр.,
м
15 апреля, чт
чт1500:00+11вюв1159100 0.0 101611
03:00+9в116798 0.0 101611
06:00+9всв116596 0.0 101611
09:00+13всв3552100 0.0 1016283
12:00+16всв3446100 0.0 1016711
15:00+18всв4743100 0.0 10151226
18:00+16всв41046100 0.0 1015485
21:00+13всв61459100 0.1 1016678
16 апреля, пт
пт1600:00+12всв51277100 0.1 1017689
03:00+9всв51187100 0.1 1018483
06:00+8всв41290100 0.0 1018482
09:00+10в51180100 0.1 1020546
12:00+13в5965100 0.1 10201044
15:00+15всв586098 0.1 10201252
18:00+14всв51062100 0.1 10201191
21:00+11всв61372100 0.1 1021787
17 апреля, сб
сб1700:00+10всв51279100 0.3 1021705
03:00+8всв51184100 0.3 1022609
06:00+7всв4108782 0.2 1023562
09:00+9всв597393 0.3 1024628
12:00+13всв685649 0.0 1024928
15:00+15всв684771 0.0 10241299
18:00+13всв59507 0.0 10241293
21:00+9всв411475 0.0 1025493
18 апреля, вс
вс1800:00+7всв412555 0.0 1026474
03:00+5всв311651 0.0 1027378
06:00+4всв311721 0.0 1028339
09:00+9в59500 0.0 1028810
12:00+12в56390 0.0 10281455
15:00+13в45365 0.0 10281800
18:00+12в36425 0.0 10281338
21:00+7в39605 0.0 1029189
19 апреля, пн
пн1900:00+6в28695 0.0 1030168
03:00+4в267712 0.0 1031119
06:00+4в38825 0.0 1032189
09:00+9вюв476524 0.0 1031581
12:00+12вюв575190 0.0 10311734
15:00+12вюв5748100 0.0 10301780
18:00+11вюв475092 0.0 10291095
21:00+7вюв4125676 0.0 1029510